Location: Góry Miechowskie
(50.3599°N, 20.1803°E)
Time: 14:55:05
(UTC+00:00)

Courier 1B - All Passes

Search period start: 13 September 2024 00:00
Search period end: 23 September 2024 00:00
Orbit: 962 x 1208 km, 28.3° (Epoch: 12 September)

Date Brightness Start Highest point End Pass type
(mag) Time Alt. Az. Time Alt. Az. Time Alt. Az.
13 Sep - 15:03:51 10° SSW 15:06:58 13° S 15:10:08 10° SSE daylight
13 Sep - 16:57:48 10° SSW 16:59:36 11° SSW 17:01:24 10° S daylight
14 Sep - 14:10:46 10° SSW 14:13:24 12° S 14:16:04 10° SSE daylight
14 Sep - 16:03:23 10° SSW 16:06:01 12° S 16:08:41 10° SSE daylight
15 Sep - 13:18:21 10° S 13:19:52 11° SSE 13:21:24 10° SSE daylight
15 Sep - 15:09:32 10° SSW 15:12:28 12° S 15:15:25 10° SSE daylight
16 Sep - 14:16:00 10° SSW 14:18:53 12° S 14:21:49 10° SSE daylight
17 Sep - 13:22:50 10° SSW 13:25:21 12° S 13:27:54 10° SSE daylight
17 Sep - 15:16:24 10° SSW 15:17:56 11° S 15:19:28 10° S daylight
18 Sep - 12:30:10 10° S 12:31:49 11° S 12:33:31 10° SSE daylight
18 Sep - 14:22:12 10° SSW 14:24:23 11° S 14:26:36 10° S daylight
19 Sep - 13:28:32 10° SSW 13:30:51 12° S 13:33:13 10° SSE daylight
20 Sep - 12:35:13 10° SSW 12:37:20 11° S 12:39:28 10° SSE daylight
21 Sep - 11:42:25 10° S 11:43:51 11° S 11:45:16 10° SSE daylight
22 Sep - 12:41:40 10° SSW 12:42:52 10° S 12:44:04 10° S daylight
